Showing default

TOMORROW-S4, 62386

Orbit data source: Space-Track

TOMORROW-S4, 62386 is a payload satellite owned by Tomorrow.io (US) in LEO that was launched on Sat, 21 Dec 2024 UTC via an FALCON 9 launch vehicle from the Air Force Western Test Range (AFWTR). Payload-class satellites include a variety of spacecraft equipped with specific instruments for various scientific and technological missions. These include communications satellites like Starlink; space stations such as the ISS; scientific satellites like the Hubble; Earth observation satellites from companies like Planet Labs, Umbra, and HawkEye 360; GPS; miniature CubeSats for education and research; and military/defense satellites.

Loading next visibility...
Identifier
62386, 2024-247K
Orbit
LEO
Country
Flag of USUS
Related business
Manufacturer
Blue Canyon
Mission
Operational Commercial Weather
Bus & Motor
CUBESAT 6U, Unknown motor
Mass
12 kg wet, 12 kg dry
Launch date (UTC)
2024-12-21 (1 year ago)
Launch vehicle
FALCON 9
Launch site
Air Force Western Test Range (AFWTR)
Object type
Payload
Rocket body
Debris
Shape & HBR
Box + 2 Pan, 1.0 m
Radar Cross Section
0.138 m², Small (<0.1 m²)

Expand to show TLE details & history
Last TLE update: 10 hours ago

TLE from 10 hours ago
0 TOMORROW-S4
1 62386U 24247K   25346.97400419  .00010364  00000-0  40557-3 0  9996
2 62386  44.9791 230.1301 0003355  29.4655 330.6416 15.26051763 54477
Epoch: 2025-12-12T23:22Z
TLE epoch observation values (Epoch: 2025-12-12T23:22:33.962Z)
Latitude
0.00002°
Longitude
157.58068°
Altitude
485.618 km
Speed
7.625 km/s
True Right ascension
15h 20m 31s
True Declination
0° 00' 00"
Sunlit
Object was in daylight at epoch
Visualization orbit readout
Latitude
Unknown
Longitude
Unknown
Altitude
Unknown
Speed
Unknown
Apparent Right ascension
Unknown
Apparent Declination
Unknown
Sunlit
N/A
Visualization observer readout
Local Sidereal Time
07:35:04
Azimuth
Unknown
Elevation
Unknown
Doppler factor
Unknown
Orbital elements
Apogee altitude
491.545 km
Perigee altitude
486.937 km
Semi-major axis
6,867.378 km
Eccentricity
0.00034
Inclination
44.9791°
RAAN
230.1301°
Arg. of periapsis
29.4655°
True anomaly
330.62274°
Mean anomaly
330.6416°
Eccentric anomaly
330.63217°
Mean motion
3.81379 °/min
Orbital period
94.39 mins
BSTAR
0.00040557
Loading maneuver chart data...
Computing Atmospheric mass density...
Loading historical data...
Loading historical data...
Loading historical data...
Loading historical data...
Loading historical data...
Loading historical data...
Loading historical data...

Documentation

Showing up to 5 results
|